DW6214 Katw Vlasia GR current weather conditions

sailwx.info

Wind from 326 at 2 knots gusting 5

Air temperature 15.6° C
Dewpoint 9.0° C

Last reported at 2020-Oct-26 10:00 UTC.
Time now 2020-Oct-26 10:49 UTC

Location: N 38°01' E 021°56'.
View on Google Maps.

See reports from other nearby stations

  
Tides and Currents Weather Stations Pressure Air Temp Water Temp Dewpoint Dewpoint Depression Visibility Wind Speed Wind Dir Waves Ship Positions
date/time (UTC)wind fromknots sea level pressurealtimeterstation pressurevisibilityair tempwater tempwave heightnotes
2020-Oct-26 10:00 326 2 gusting 5 15.6
2020-Oct-26 09:50 347 5 gusting 7 15.6
2020-Oct-26 09:40 333 3 gusting 6 15.6
2020-Oct-26 09:30 327 3 gusting 6 15.0
2020-Oct-26 09:20 324 2 gusting 7 15.0
2020-Oct-26 09:10 306 1 gusting 7 15.0
2020-Oct-26 09:00 329 3 gusting 6 14.4
2020-Oct-26 08:50 318 2 gusting 7 14.4
2020-Oct-26 08:40 319 1 gusting 6 14.4
2020-Oct-26 08:30 317 2 gusting 5 13.9
2020-Oct-26 08:20 019 5 gusting 8 13.9
2020-Oct-26 08:10 326 3 gusting 7 13.3
2020-Oct-26 08:00 333 3 gusting 6 13.3
2020-Oct-26 07:50 323 1 gusting 5 13.3
2020-Oct-26 07:40 307 0 gusting 6 13.3
2020-Oct-26 07:30 319 1 gusting 3 12.8
2020-Oct-26 07:20 338 1 gusting 3 12.2
2020-Oct-26 07:10 142 11.7
2020-Oct-26 07:00 005 11.1
2020-Oct-26 06:50 005 1 gusting 3 11.1
2020-Oct-26 06:40 005 1 gusting 2 10.6
2020-Oct-26 06:30 360 1 gusting 3 10.0
2020-Oct-26 06:20 040 9.4
2020-Oct-26 06:10 078 9.4
2020-Oct-26 06:00 078 8.9
2020-Oct-26 05:50 078 8.9
2020-Oct-26 05:40 078 0 gusting 1 9.4
2020-Oct-26 05:30 102 8.3
2020-Oct-26 05:20 102 7.8
2020-Oct-26 05:10 046 7.8
2020-Oct-26 05:00 049 7.8
2020-Oct-26 04:50 049 1 gusting 3 7.8
2020-Oct-26 04:40 136 8.3
2020-Oct-26 04:30 136 7.8
2020-Oct-26 04:20 136 7.8
2020-Oct-26 04:10 136 9.4
2020-Oct-26 04:00 137 8.9
2020-Oct-26 03:50 137 9.4
2020-Oct-25 20:00
2020-Oct-25 19:00
2020-Oct-25 18:00
2020-Oct-25 17:01
2020-Oct-25 16:00 333 4 13.3
2020-Oct-25 15:10
2020-Oct-25 15:00 15.0
2020-Oct-25 14:20 302 7 15.6
2020-Oct-25 14:10 322 7 15.6
2020-Oct-25 14:00 309 5 15.6
2020-Oct-25 13:40 338 4 16.1
2020-Oct-25 13:30 312 6 16.1
2020-Oct-25 13:20 315 9 16.1
2020-Oct-25 13:10
2020-Oct-25 13:00
2020-Oct-25 12:50
2020-Oct-25 12:40
2020-Oct-25 12:30
2020-Oct-25 12:20
2020-Oct-25 12:10
2020-Oct-25 12:00
2020-Oct-25 11:50
2020-Oct-25 11:40
2020-Oct-25 11:30
2020-Oct-25 11:20
2020-Oct-25 11:10
2020-Oct-25 11:00
2020-Oct-25 10:50
2020-Oct-25 10:40
2020-Oct-25 10:30
2020-Oct-25 10:20
2020-Oct-25 10:10 18.3
2020-Oct-25 10:00 18.3
2020-Oct-25 09:50 17.8
2020-Oct-25 09:40 17.8
2020-Oct-25 09:30 17.8
2020-Oct-25 09:20 17.8
2020-Oct-25 09:10 17.8
2020-Oct-25 09:00 17.8
2020-Oct-25 08:50 17.2
2020-Oct-25 08:40 16.7
2020-Oct-25 08:30 16.1
2020-Oct-25 08:20 16.1
2020-Oct-25 08:10 206 15.6
2020-Oct-25 08:00 206 14.4
2020-Oct-25 07:50 206 13.9
2020-Oct-25 07:40 206 13.9
2020-Oct-25 07:30 215 13.3
2020-Oct-25 07:20 346 13.3
2020-Oct-25 07:10 346 12.8
2020-Oct-25 07:00 346 12.8
2020-Oct-25 06:50 346 12.2
2020-Oct-25 06:40 346 11.7
2020-Oct-25 06:30 346 11.1
2020-Oct-25 06:20 106 11.1
2020-Oct-25 06:10 106 10.6
2020-Oct-25 06:00 106 10.0
2020-Oct-25 05:50 076 7.8
2020-Oct-25 05:40 074 7.8
2020-Oct-25 05:30 074 7.2
2020-Oct-25 05:20 074 6.7
2020-Oct-25 05:10 074 6.7
2020-Oct-25 05:00 074 6.7
2020-Oct-25 04:50 071 6.1
2020-Oct-25 04:40 083 7.2
2020-Oct-25 04:30 083 7.2
2020-Oct-25 04:20 083 7.2
2020-Oct-25 04:10 083 8.3
2020-Oct-25 04:00 083 0 gusting 2 7.8
2020-Oct-25 03:50 115 8.3
2020-Oct-25 03:40 132 8.3
2020-Oct-25 03:30 125 2 gusting 6 8.3
2020-Oct-25 03:20 136 8.3
2020-Oct-25 03:10 139 0 gusting 2 8.3
2020-Oct-25 03:00 144 7.2
2020-Oct-25 02:50 144 7.8
2020-Oct-25 02:40 144 7.2
2020-Oct-25 02:30 144 8.3
2020-Oct-25 02:20 144 8.3
2020-Oct-25 02:10 144 7.8
2020-Oct-25 02:00 144 7.8
2020-Oct-25 01:50 144 7.8
2020-Oct-25 01:40 144 7.8
2020-Oct-25 01:30 144 8.3
2020-Oct-25 01:20 144 7.8
2020-Oct-25 01:10 144 7.8
2020-Oct-25 01:00 144 7.8
2020-Oct-25 00:50 144 7.2
2020-Oct-25 00:40 144 7.8
2020-Oct-25 00:30 144 7.8
2020-Oct-25 00:20 144 8.3
2020-Oct-25 00:10 144 7.8
2020-Oct-25 00:00 144 8.3
2020-Oct-24 23:50 144 7.8
2020-Oct-24 23:40 144 7.8
2020-Oct-24 23:30 144 8.9
2020-Oct-24 23:20 144 8.9
2020-Oct-24 23:10 124 9.4
2020-Oct-24 23:00 107 8.3
2020-Oct-24 22:50 107 8.9
2020-Oct-24 22:40 107 8.3
2020-Oct-24 22:30 107 8.9
2020-Oct-24 22:20 107 8.9
2020-Oct-24 22:10 107 8.9
2020-Oct-24 22:00 107 8.9
2020-Oct-24 21:50 107 9.4
2020-Oct-24 21:40 107 10.0
2020-Oct-24 21:30 107 9.4
2020-Oct-24 21:20 107 0 gusting 2 10.0
2020-Oct-24 21:10 107 10.0
2020-Oct-24 21:00 107 10.6
2020-Oct-24 20:50 107 10.0
2020-Oct-24 20:40 146 10.0
2020-Oct-24 20:30 101 10.0
2020-Oct-24 20:20 101 10.0
2020-Oct-24 20:10 101 10.6
2020-Oct-24 20:00 101 10.6
2020-Oct-24 19:50 101 10.6
2020-Oct-24 19:40 101 11.1
2020-Oct-24 19:30 101 11.1
2020-Oct-24 19:20 101 10.6
2020-Oct-24 19:10 101 10.6
2020-Oct-24 19:00 101 11.1
2020-Oct-24 18:50 101 11.1
2020-Oct-24 18:40 101 11.1
2020-Oct-24 18:30 101 11.1
2020-Oct-24 18:20 101 11.1
2020-Oct-24 18:10 101 11.7
2020-Oct-24 18:00 101 11.7
2020-Oct-24 17:50 101 11.7
2020-Oct-24 17:40 101 11.7
2020-Oct-24 17:30 101 11.7
2020-Oct-24 17:20 099 12.2
2020-Oct-24 17:10 099 11.7
2020-Oct-24 17:00 099 11.7
2020-Oct-24 16:50 093 11.1
2020-Oct-24 16:40 093 12.8
2020-Oct-24 16:30 079 12.2
2020-Oct-24 16:20 079 12.8
2020-Oct-24 16:10 075 13.3
2020-Oct-24 16:00 047 13.3
2020-Oct-24 15:50 047 14.4
2020-Oct-24 15:40 336 14.4
2020-Oct-24 15:30 336 15.0
2020-Oct-24 15:20 336 0 gusting 3 15.6
2020-Oct-24 15:10 355 15.6
2020-Oct-24 15:00 322 0 gusting 3 16.1
2020-Oct-24 14:50 311 16.1
2020-Oct-24 14:40 315 2 gusting 7 16.7
2020-Oct-24 14:30 330 4 gusting 9 17.2
2020-Oct-24 14:20 286 3 gusting 7 17.8
2020-Oct-24 14:10 324 1 gusting 4 18.3
2020-Oct-24 14:00 259 1 gusting 7 18.3
2020-Oct-24 13:50 320 3 gusting 6 18.9
2020-Oct-24 13:40 258 0 gusting 3 18.9
2020-Oct-24 13:30 317 1 gusting 7 19.4
2020-Oct-24 13:20 329 4 gusting 7 19.4
2020-Oct-24 13:10 319 3 gusting 9 19.4
2020-Oct-24 13:00 313 4 gusting 9 19.4
2020-Oct-24 12:50 338 4 gusting 9 19.4
2020-Oct-24 12:40 321 1 gusting 8 20.0
2020-Oct-24 12:30 306 1 gusting 9 20.0
2020-Oct-24 12:20 309 1 gusting 6 20.0
2020-Oct-24 12:10 275 0 gusting 3 20.6
2020-Oct-24 12:00 322 2 gusting 6 20.0
2020-Oct-24 11:50 332 1 gusting 5 20.0
2020-Oct-24 11:40 316 2 gusting 7 20.0
2020-Oct-24 11:30 325 3 gusting 6 20.6
2020-Oct-24 11:20 311 2 gusting 7 20.0
2020-Oct-24 11:10 248 0 gusting 7 20.0
2020-Oct-24 11:00 005 2 gusting 9 19.4
2020-Oct-24 10:50 278 2 gusting 8 20.0
2020-Oct-24 10:40 319 3 gusting 7 20.6
2020-Oct-24 10:30 319 1 gusting 5 20.0